User: anonymous   Login
Location: Unspecified
(0.0000°N, 0.0000°E)
Time: 06:39:07
(UTC+01:00)
Language:

YAOGAN 3 - Orbit

View from above orbital plane
View from above orbital plane
View from above satellite
View from above satellite

Ground track
Ground track

The orbit data is extracted from the following two-line orbital elements,

1 32289U 07055A   14331.90248935  .00001411  00000-0  18390-3 0  8128
2 32289 097.9506 322.6671 0001662 103.1526 256.9880 14.82159468380773
Epoch (UTC): 27 November 2014 21:39:35
Eccentricity: 0.0001662
inclination: 97.9506°
perigee height: 621 km
apogee height: 623 km
right ascension of ascending node: 322.6671°
argument of perigee: 103.1526°
revolutions per day: 14.82159468
mean anomaly at epoch: 256.9880°
orbit number at epoch: 38077

The dashed part of the orbit path shows where the satellite is in the earth's shadow,  

DLR